Regional Weather Roundup
Issued by NWS

Home | Current Version | Previous Version | Text Only | Print | Product List | Glossary Off
Versions: 1 2 3 4 5 6 7 8 9 10 11 12 13 14 15 16 17 18 19 20 21 22 23 24 25 26 27 28 29 30 31 32 33 34 35 36 37 38 39 40 41 42 43 44 45 46 47 48 49 50

441
ASUS43 KMKX 050811
RWRWI

WISCONSIN REGIONAL WEATHER ROUNDUP
NATIONAL WEATHER SERVICE MILWAUKEE/SULLIVAN WI
300 AM CDT THU MAY 05 2016

NOTE: "FAIR" INDICATES FEW OR NO CLOUDS BELOW 12,000 FEET WITH NO
SIGNIFICANT WEATHER AND/OR OBSTRUCTIONS TO VISIBILITY.

WIZ001-002-006>008-014>016-023>028-050900-
NORTHWEST WISCONSIN

CITY           SKY/WX    TMP DP  RH WIND       PRES   REMARKS
SUPERIOR ARPT  MOCLDY    31  30  99 CALM      30.02S
ASHLAND        CLEAR     28  28 100 CALM      30.02F
HAYWARD        CLEAR     30  26  85 CALM      30.01S
SIREN          CLEAR     33  27  77 CALM      30.01F
CUMBERLAND     CLEAR     34  30  86 CALM      30.01S
RICE LAKE      CLEAR     34  31  88 CALM      30.03S
CHETEK         CLEAR     33  30  90 N3        30.02S
LADYSMITH      CLEAR     33  31  93 CALM      30.03R
EAU CLAIRE     CLEAR     34  30  85 CALM      30.00R
MENOMONIE      CLEAR     37  30  74 CALM      30.02R
NEW RICHMOND   CLEAR     37  30  77 CALM      30.02S
OSCEOLA        CLEAR     36  31  81 E3        30.04F
$$

WIZ003>005-009-010-017-018-050900-
NORTH CENTRAL WISCONSIN

CITY           SKY/WX    TMP DP  RH WIND       PRES   REMARKS
MANITOWISH WTR CLEAR     28  28 100 CALM      29.99S FOG
ARBOR VITAE    CLEAR     32  29  91 CALM      29.99R
WOODRUFF       CLEAR     32  29  91 CALM      29.99R
RHINELANDER    CLEAR     30  27  88 CALM      29.98F
EAGLE RIVER    FOG       28  28 100 CALM      29.98F VSB 3/4
LAND O LAKES   CLEAR     28  27  98 CALM      30.00R
PHILLIPS       CLEAR     29  29 100 CALM      29.99S
TOMAHAWK       CLEAR     29  27  94 CALM      29.98F
MEDFORD        CLEAR     34  31  88 E6        29.97F WCI  29
MERRILL        CLEAR     30  29  95 CALM      30.00R
$$

WIZ029-030-035-036-043>047-050900-
CENTRAL WISCONSIN

CITY           SKY/WX    TMP DP  RH WIND       PRES   REMARKS
WAUSAU         CLEAR     38  31  76 CALM      29.98R
MOSINEE        CLEAR     34  32  93 NE6       29.99S WCI  29
MARSHFIELD     CLEAR     41  31  67 NE7       29.97S
STEVENS POINT  CLEAR     31  28  89 CALM      29.99S
WAUPACA        CLEAR     38  32  77 NW5       29.99R WCI  35
WAUTOMA        CLEAR     36  31  82 N3        29.99R
WISC RAPIDS    CLEAR     39  30  70 NE5       30.00S
CAMP DOUGLAS   CLEAR     30  30 100 W6        29.99R WCI  24
$$

WIZ011>013-019>022-031-037>040-048>050-050900-
NORTHEAST WISCONSIN

CITY           SKY/WX    TMP DP  RH WIND       PRES   REMARKS
ANTIGO         CLEAR     33  31  91 CALM      29.98S
SHAWANO        CLEAR     37  32  80 N5        29.99R WCI  34
OCONTO         CLEAR     35  33  90 NW6       29.97S WCI  30
STURGEON BAY   CLEAR     37  32  81 N12       29.97F WCI  30
GREEN BAY      CLEAR     36  31  82 N7        29.96F WCI  30
MANITOWOC      PTCLDY    38  32  79 NW12      29.95S WCI  30
APPLETON       PTCLDY    36  30  80 N8        29.95S WCI  29
CLINTONVILLE   CLEAR     37  32  81 N5        29.98S WCI  34
OSHKOSH        CLEAR     36  30  79 N6        29.96S WCI  31
$$

WIZ032>034-041-042-053>061-050900-
SOUTHWEST WISCONSIN

CITY           SKY/WX    TMP DP  RH WIND       PRES   REMARKS
LA CROSSE      CLEAR     44  31  60 CALM      29.99S
SPARTA         CLEAR     31  28  90 CALM      30.00S
VIROQUA        CLEAR     40  32  72 CALM      29.98R
BOSCOBEL       CLEAR     37  33  85 CALM      29.98S
PRAIRIE DU CHI CLEAR     38  31  77 CALM      29.98S HAZE
PLATTEVILLE    CLEAR     39  34  81 N8        29.96R WCI  34
$$

WIZ056-057-062-063-064-067-068-050900-
SOUTH CENTRAL WISCONSIN

CITY           SKY/WX    TMP DP  RH WIND       PRES   REMARKS
REEDSBURG      CLEAR     42  32  69 NE6       29.97S
BARABOO/DELLS  CLEAR     40  32  74 NE6       29.97S
LONE ROCK      CLEAR     41  32  70 NE3       29.98S
MINERAL POINT  CLEAR     43  32  65 N8        29.95F
MADISON        CLEAR     37  31  78 N7        29.96S WCI  32
MIDDLETON      CLEAR     37  33  85 N5        29.97S WCI  34
WATERTOWN      CLEAR     37  33  87 N5        29.94S WCI  33
MONROE         CLEAR     39  34  81 N14       29.94S WCI  31
JANESVILLE     CLEAR     41  32  70 N7        29.93S
$$

WIZ051-052-058>065-066-070>072-050900-
SOUTHEAST WISCONSIN

CITY           SKY/WX    TMP DP  RH WIND       PRES   REMARKS
MILWAUKEE      CLOUDY    42  33  70 N13G24    29.91F
WAUKESHA       CLEAR     36  32  87 N8        29.93F WCI  29
MILWAUKEE/TIMM MOCLDY    37  30  75 N8        29.93F WCI  31
RACINE         CLOUDY    42  33  70 N17G28    29.92S
BURLINGTON     CLOUDY    38  33  83 N6        29.92S WCI  33
KENOSHA        CLOUDY    42  32  67 N14       29.91S
FOND DU LAC    CLEAR     41  33  73 NE16      29.96S
SHEBOYGAN      CLOUDY    38  31  76 N10       29.93F WCI  31
WEST BEND      PTCLDY    36  32  87 N7        29.93F WCI  30
JUNEAU         CLEAR     37  32  82 N6        29.95S WCI  33
$$

LSZ147-162-050900-
LAKE SUPERIOR

STATION/POSITION TIME  TEMP    WIND        PRES    WAVE
                       AIR SEA DIR/SP/G            HT/PER
                 (UTC) (F)     (DEG/KT/KT) (MB)    (FT/S)
W MID LAKE BUOY  0750   37 36  340/  4/  4 1017.3F   1/ 5
DEVILS ISLAND    0800   38     100/  5/  5 1016.9F
PORT WING        0540   35     130/  2/  4 1016.6
SAXON HARBOR     0700   31     210/  3/  4 1016.3R
$$

LMZ867-665-643>646-050900-
LAKE MICHIGAN

STATION/POSITION TIME  TEMP    WIND        PRES    WAVE
                       AIR SEA DIR/SP/G            HT/PER
                 (UTC) (F)     (DEG/KT/KT) (MB)    (FT/S)
CHAMBERS ISLAND  0700   40     340/ 12/ 15 1014.6S
N MID LAKE BUOY  0750   38 38  340/ 14/ 16 1013.6F   2/ 4
NORTHPORT PIER   0723   40     340/ 12/ 17 1014.2F
ALGOMA LAKESHORE 0715          340/ 10/ 13   N/A
KEWAUNEE LAKESHO 0700   39     350/  8/ 13 1013.5F
SHEBOYGAN LAKESH 0800   41     350/ 19/ 22 1014.2F
PORT WASHINGTON  0740   41     350/  4/ 13 1014.2F
S MID LAKE BUOY  0750   40 40   20/ 21/ 25 1011.2R   8/ 7
KENOSHA   LAKESH 0800   43      10/ 25/ 31 1012.5S
$$

TC  - TEMPERATURE IN CELSIUS
VSB - VISIBILITY IN STATUTE MILES
WCI - WIND CHILL INDEX
HX  - HEAT INDEX





USA.gov is the U.S. government's official web portal to all federal, state and local government web resources and services.